TimeEST,TemperatureF,Dew PointF,Humidity,Sea Level PressureIn,VisibilityMPH,Wind Direction,Wind SpeedMPH,Gust SpeedMPH,PrecipitationIn,Events,Conditions,WindDirDegrees,DateUTC
12:32 AM,41.0,37.4,87,29.94,10.0,SE,10.4,-,0.02,,Overcast,140,2013-02-11 05:32:00
12:53 AM,43.0,39.0,86,29.95,10.0,SSE,5.8,-,0.02,,Overcast,150,2013-02-11 05:53:00
1:53 AM,45.0,39.0,80,29.92,10.0,South,9.2,17.3,N/A,,Overcast,180,2013-02-11 06:53:00
2:53 AM,48.0,41.0,77,29.89,10.0,South,9.2,-,N/A,,Overcast,170,2013-02-11 07:53:00
3:53 AM,50.0,41.0,71,29.87,10.0,South,6.9,-,N/A,,Overcast,180,2013-02-11 08:53:00
4:53 AM,50.0,41.0,71,29.85,10.0,South,5.8,-,N/A,,Overcast,170,2013-02-11 09:53:00
5:53 AM,53.1,42.1,66,29.86,10.0,SSW,6.9,-,N/A,,Overcast,210,2013-02-11 10:53:00
6:53 AM,53.1,43.0,69,29.86,10.0,SSW,8.1,-,0.00,Rain,Light Rain,210,2013-02-11 11:53:00
7:53 AM,52.0,45.0,77,29.86,10.0,Variable,6.9,-,0.00,,Overcast,0,2013-02-11 12:53:00
8:53 AM,54.0,46.0,75,29.84,10.0,South,10.4,18.4,N/A,,Overcast,190,2013-02-11 13:53:00
9:53 AM,57.0,46.9,69,29.82,10.0,SW,11.5,24.2,0.01,,Scattered Clouds,220,2013-02-11 14:53:00
10:53 AM,60.1,43.0,53,29.79,10.0,SW,13.8,29.9,N/A,,Partly Cloudy,220,2013-02-11 15:53:00
11:53 AM,62.1,39.9,44,29.76,10.0,SW,16.1,36.8,N/A,,Mostly Cloudy,220,2013-02-11 16:53:00
12:53 PM,62.1,30.0,30,29.73,10.0,WSW,21.9,39.1,N/A,,Scattered Clouds,240,2013-02-11 17:53:00
1:53 PM,63.0,28.9,28,29.70,10.0,WSW,19.6,40.3,N/A,,Clear,240,2013-02-11 18:53:00
2:53 PM,62.1,25.0,24,29.71,10.0,SW,17.3,38.0,N/A,,Partly Cloudy,230,2013-02-11 19:53:00
3:53 PM,61.0,23.0,23,29.72,10.0,WSW,19.6,34.5,N/A,,Clear,240,2013-02-11 20:53:00
4:53 PM,57.9,21.0,24,29.73,10.0,WSW,10.4,29.9,N/A,,Clear,250,2013-02-11 21:53:00
5:53 PM,55.9,21.0,26,29.76,10.0,West,10.4,24.2,N/A,,Clear,260,2013-02-11 22:53:00
6:53 PM,53.1,24.1,32,29.80,10.0,West,10.4,21.9,N/A,,Clear,270,2013-02-11 23:53:00
7:53 PM,46.0,30.0,54,29.87,10.0,WNW,8.1,19.6,N/A,,Partly Cloudy,300,2013-02-12 00:53:00
8:53 PM,44.1,28.9,55,29.90,10.0,West,9.2,-,N/A,,Mostly Cloudy,280,2013-02-12 01:53:00
9:53 PM,43.0,28.9,58,29.92,10.0,Variable,5.8,16.1,N/A,,Mostly Cloudy,0,2013-02-12 02:53:00
10:53 PM,43.0,27.0,53,29.93,10.0,West,10.4,21.9,N/A,,Overcast,270,2013-02-12 03:53:00
11:53 PM,42.1,26.1,53,29.95,10.0,West,9.2,21.9,N/A,,Overcast,270,2013-02-12 04:53:00